This is the latest recevied weather packets stored in our database for station/object SV9TNF-56. If no packets are shown the sender has not sent any weather packets the latest 10 day(s).
| Time | Temp. | Humidity | Pressure | Rain* | Wind** | Luminosity | Snow |
|---|---|---|---|---|---|---|---|
| 1788242889 | 24.44° C | 69% | 1010.8 hPa | 0 mm | 12.07 m/s, 90° | - | - |
| 1788242589 | 24.44° C | 70% | 1010.8 hPa | 0 mm | 13.86 m/s, 121° | - | - |
| 1788242289 | 24.44° C | 71% | 1010.8 hPa | 0 mm | 12.07 m/s, 138° | - | - |
| 1788241989 | 24.44° C | 73% | 1010.8 hPa | 0 mm | 17.88 m/s, 258° | - | - |
| 1788241688 | 24.44° C | 74% | 1010.8 hPa | 0 mm | 14.31 m/s, 204° | - | - |
| 1788241389 | 24.44° C | 74% | 1010.8 hPa | 0 mm | 8.49 m/s, 240° | - | - |
| 1788241089 | 24.44° C | 74% | 1010.8 hPa | 0 mm | 8.49 m/s, 128° | - | - |
| 1788240788 | 24.44° C | 73% | 1010.8 hPa | 0 mm | 6.26 m/s, 182° | - | - |
| 1788240488 | 24.44° C | 73% | 1010.8 hPa | 0 mm | 8.05 m/s, 218° | - | - |
| 1788240188 | 24.44° C | 73% | 1010.8 hPa | 0 mm | 12.07 m/s, 156° | - | - |
| 1788239888 | 24.44° C | 73% | 1010.8 hPa | 0 mm | 8.94 m/s, 132° | - | - |
| 1788239588 | 24.44° C | 73% | 1010.8 hPa | 0 mm | 8.94 m/s, 192° | - | - |
| 1788239288 | 24.44° C | 73% | 1010.8 hPa | 0 mm | 8.49 m/s, 168° | - | - |
| 1788238988 | 24.44° C | 73% | 1010.8 hPa | 0 mm | 8.49 m/s, 117° | - | - |
| 1788238688 | 24.44° C | 72% | 1010.8 hPa | 0 mm | 13.41 m/s, 120° | - | - |
| 1788238388 | 24.44° C | 71% | 1010.5 hPa | 0 mm | 12.07 m/s, 240° | - | - |
| 1788238088 | 24.44° C | 72% | 1010.8 hPa | 0 mm | 7.6 m/s, 115° | - | - |
| 1788237787 | 23.89° C | 72% | 1010.8 hPa | 0 mm | 6.26 m/s, 144° | - | - |
| 1788237488 | 23.89° C | 72% | 1010.8 hPa | 0 mm | 3.58 m/s, 246° | - | - |
| 1788237187 | 23.89° C | 72% | 1010.5 hPa | 0 mm | 15.2 m/s, 249° | - | - |
| 1788236887 | 23.89° C | 72% | 1010.5 hPa | 0 mm | 10.28 m/s, 180° | - | - |
| 1788236587 | 23.89° C | 72% | 1010.5 hPa | 0 mm | 8.94 m/s, 149° | - | - |
| 1788236287 | 23.89° C | 71% | 1010.5 hPa | 0 mm | 5.81 m/s, 192° | - | - |
| 1788235987 | 23.89° C | 72% | 1010.5 hPa | 0 mm | 10.28 m/s, 195° | - | - |
| 1788235686 | 23.89° C | 72% | 1010.5 hPa | 0 mm | 4.92 m/s, 227° | - | - |
* Rain latest hour (hover to see other rain measurements)
** Current wind speed in m/s (hover to see current wind gust speed)